Temp
37 39 39 39 40 41 42 41 42 45 45 46 46 46 46 47 47 48 48 48 49 50 52 53 54 54 54
33 34 36 38 38 38 41 44 42 44 45 45 46 46 46 46 46 46 46 47 47 48 50 50 51 52 53
30 34 35 37 36 38 39 40 43 44 45 45 45 45 45 45 45 45 45 46 46 47 47 48 48 49 50
30 31 33 36 36 34 34 37 38 42 43 43 44 44 44 45 45 45 45 45 45 46 46 46 46 47 48
28 29 29 30 30 34 32 34 35 37 36 38 39 39 40 43 43 44 44 45 45 45 46 46 46 46 47
27 26 27 29 31 30 30 28 27 37 35 34 38 36 39 40 43 44 44 45 45 45 45 45 45 45 46
25 26 26 29 30 29 30 29 29 34 33 30 35 34 38 41 43 43 44 44 44 44 44 44 45 45 45
31 31 32 33 32 32 31 31 31 33 34 27 33 32 36 38 42 43 43 44 44 44 44 44 44 45 45
36 36 37 37 37 33 29 25 25 28 33 30 31 31 34 35 38 42 42 43 43 44 44 44 44 44 43
31 33 35 35 37 33 30 26 26 25 31 28 29 30 26 33 34 36 37 40 41 42 43 43 43 40 38
28 29 30 31 31 32 32 30 26 25 32 32 28 28 27 26 30 33 34 35 36 37 40 41 42 41 37
26 26 26 28 30 32 32 32 33 31 33 32 26 26 24 23 23 29 31 33 33 33 35 38 40 41 42
24 25 27 29 30 30 30 31 30 31 33 32 29 28 26 23 23 25 26 29 31 31 32 33 33 35 33
25 26 27 27 26 27 26 26 25 26 30 31 30 29 25 25 25 24 26 23 28 30 30 31 33 34 34
24 24 25 25 25 26 25 24 22 22 23 27 29 29 28 27 23 25 25 25 27 28 28 27 29 31 32
23 23 23 23 22 23 24 22 20 21 22 24 24 24 24 26 31 25 25 25 26 27 27 25 25 29 31
21 21 21 21 21 19 20 20 19 20 21 23 22 20 17 16 25 33 25 26 27 26 27 26 24 27 30
MSLP
1027.09 1026.67 1026.61 1026.43 1026.04 1025.83 1025.41 1025.01 1024.50 1024.23 1023.83 1023.47 1023.14 1022.79 1022.37 1021.97 1021.57 1021.19 1020.85 1020.54 1020.10 1019.45 1018.86 1018.27 1017.82 1017.20 1017.29
1027.04 1026.52 1026.33 1025.92 1025.54 1025.47 1024.69 1024.23 1023.81 1023.49 1023.11 1022.76 1022.35 1022.00 1021.73 1021.42 1021.10 1020.72 1020.28 1019.95 1019.58 1019.04 1018.35 1018.21 1017.81 1017.63 1017.17
1026.45 1026.19 1025.71 1025.27 1024.78 1024.48 1023.97 1023.43 1023.06 1022.67 1022.26 1021.89 1021.67 1021.36 1021.01 1020.71 1020.34 1019.98 1019.58 1019.19 1018.74 1018.42 1018.23 1017.97 1017.76 1017.36 1016.74
1026.00 1025.50 1025.16 1024.67 1024.29 1023.74 1023.13 1022.79 1022.27 1022.06 1021.91 1021.62 1021.07 1020.50 1020.15 1019.82 1019.50 1019.14 1018.81 1018.52 1018.24 1017.92 1017.59 1017.33 1017.05 1016.62 1016.22
1025.53 1025.10 1024.63 1024.28 1023.72 1023.24 1022.75 1022.50 1021.77 1021.70 1021.34 1020.84 1020.17 1019.77 1019.30 1018.89 1018.62 1018.27 1017.96 1017.61 1017.35 1017.01 1016.73 1016.44 1016.12 1015.82 1015.50
1024.78 1024.39 1023.97 1023.78 1023.41 1023.12 1022.67 1022.07 1021.18 1021.18 1020.63 1019.91 1019.62 1018.80 1018.49 1018.20 1017.72 1017.16 1016.90 1016.57 1016.29 1016.03 1015.77 1015.48 1015.22 1014.83 1014.46
1023.93 1023.63 1023.38 1023.11 1022.93 1022.40 1021.83 1021.27 1020.45 1020.19 1019.96 1018.69 1018.69 1018.07 1017.67 1017.08 1016.70 1016.32 1015.76 1015.45 1015.12 1014.85 1014.60 1014.33 1014.10 1013.83 1013.47
1023.17 1022.67 1022.24 1021.87 1021.71 1021.23 1020.73 1020.11 1019.52 1019.33 1019.11 1017.95 1017.56 1017.04 1016.64 1016.07 1015.61 1015.11 1014.65 1014.27 1013.94 1013.54 1013.26 1013.03 1012.83 1012.62 1012.30
1021.68 1021.20 1020.78 1020.29 1019.98 1019.76 1019.40 1019.27 1018.42 1018.04 1017.75 1017.25 1016.58 1016.21 1015.48 1014.78 1014.32 1013.94 1013.56 1013.08 1012.68 1012.26 1011.94 1011.70 1011.51 1011.23 1010.91
1020.68 1020.25 1019.89 1019.48 1018.99 1018.82 1018.59 1018.14 1017.65 1017.02 1016.78 1016.37 1015.80 1015.63 1014.61 1014.04 1013.51 1013.02 1012.62 1012.24 1011.84 1011.30 1010.89 1010.51 1010.27 1010.00 1009.71
1019.71 1019.26 1018.89 1018.51 1018.15 1017.75 1017.44 1017.10 1016.65 1016.04 1015.82 1015.38 1015.04 1014.67 1014.31 1013.34 1012.70 1012.11 1012.05 1011.29 1010.92 1010.42 1009.91 1009.52 1009.24 1008.95 1008.46
1018.57 1018.22 1017.84 1017.38 1016.94 1016.58 1016.24 1015.98 1015.64 1015.16 1014.77 1014.57 1014.38 1014.15 1013.55 1012.82 1011.93 1010.94 1010.74 1010.27 1009.98 1009.44 1009.00 1008.49 1007.99 1007.49 1007.02
1017.66 1017.26 1016.93 1016.57 1016.19 1015.86 1015.48 1015.13 1014.71 1014.12 1013.68 1013.41 1013.38 1012.86 1012.55 1011.90 1010.93 1010.10 1009.57 1008.98 1008.91 1008.47 1007.95 1007.50 1007.04 1006.66 1006.14
1017.01 1016.64 1016.38 1016.04 1015.53 1015.14 1014.64 1014.18 1013.78 1012.91 1012.55 1012.26 1012.08 1011.76 1010.99 1010.54 1009.99 1008.72 1008.88 1007.74 1007.68 1007.15 1006.69 1006.13 1005.64 1005.23 1004.74
1016.61 1016.20 1015.70 1015.24 1014.66 1014.35 1013.89 1013.41 1012.91 1012.08 1011.30 1010.99 1010.61 1010.11 1009.45 1008.93 1008.25 1007.73 1007.02 1006.47 1005.98 1005.70 1005.66 1004.69 1004.04 1003.64 1003.29
1015.93 1015.47 1014.91 1014.48 1014.03 1013.65 1013.23 1012.70 1011.92 1011.07 1010.37 1009.94 1009.45 1008.73 1007.84 1006.73 1006.86 1005.97 1005.20 1004.60 1004.51 1004.11 1003.93 1003.41 1002.19 1001.77 1001.67
1015.32 1014.85 1014.50 1013.99 1013.44 1012.87 1012.27 1011.66 1010.79 1009.99 1009.19 1008.73 1008.27 1007.77 1006.50 1004.77 1003.74 1004.27 1003.45 1002.75 1002.66 1002.09 1001.91 1001.49 1000.60 999.59 999.99
Wind_Speed
9 8 11 11 10 10 11 11 10 19 21 22 22 22 23 24 25 24 25 25 26 26 26 25 24 21 23
10 9 11 11 11 13 10 9 10 17 23 22 22 23 24 25 26 27 27 27 26 26 23 21 21 23 23
10 8 9 10 10 12 10 11 10 19 20 23 25 26 25 25 25 26 26 25 24 22 26 25 26 27 27
10 9 10 10 9 10 11 8 8 10 16 20 24 25 26 25 25 24 22 24 25 25 25 25 26 27 28
11 9 10 10 11 8 10 10 10 10 10 10 11 10 12 19 20 23 24 24 25 26 27 28 28 28 28
11 12 13 11 11 10 11 11 13 8 11 11 10 12 11 10 22 26 27 27 27 28 28 29 29 29 28
14 14 15 14 13 14 14 13 14 10 12 14 11 13 12 13 24 27 27 29 29 29 29 30 29 30 31
15 16 15 15 15 14 16 16 15 12 13 16 12 13 12 11 26 29 30 31 32 32 31 31 30 30 32
30 31 32 33 28 16 12 12 13 13 12 14 12 12 12 11 12 26 29 30 31 32 32 32 32 31 25
15 18 21 20 30 18 12 13 13 14 11 11 11 11 13 12 13 12 11 22 29 31 31 31 30 14 12
13 13 13 13 12 13 14 12 11 11 13 13 11 11 11 14 14 13 11 13 12 16 26 30 32 28 15
12 12 10 10 10 10 11 11 11 15 15 15 12 12 13 14 16 14 12 12 11 13 13 21 30 31 33
10 10 9 9 11 11 13 14 15 17 15 18 12 14 13 14 16 15 17 13 11 12 12 13 13 13 14
9 9 10 10 11 10 11 11 12 13 15 16 15 16 15 14 15 17 13 17 11 12 12 13 13 13 14
10 11 12 12 11 10 11 12 13 14 14 12 14 16 16 19 16 15 16 16 14 14 14 15 14 14 14
12 12 12 11 11 12 11 12 14 14 14 13 13 14 14 18 25 17 17 16 14 16 15 16 17 15 14
11 11 11 12 16 12 12 13 14 15 15 13 13 14 16 19 15 28 18 16 14 15 14 15 17 17 14
Wind_Direction
275 283 287 288 287 289 296 297 290 303 305 306 306 303 303 304 304 305 305 303 299 299 298 297 304 299 290
279 282 275 280 290 285 283 281 287 298 301 302 299 303 303 302 301 299 298 298 297 295 296 300 299 301 297
278 275 272 268 273 269 279 281 286 284 293 303 303 302 296 297 294 295 294 294 290 296 296 292 294 293 292
272 280 277 269 279 285 276 284 286 299 294 292 292 294 294 294 291 288 289 292 289 288 289 288 289 291 289
264 276 282 276 270 281 295 282 284 287 282 279 284 282 282 289 285 284 283 284 285 286 288 288 288 285 285
271 267 275 283 286 290 287 280 281 272 275 280 281 285 284 274 278 283 285 283 284 284 284 285 283 283 282
274 271 276 272 273 275 275 276 277 286 285 282 279 278 278 276 281 283 287 289 284 280 280 280 279 278 279
265 265 265 269 267 268 272 275 278 275 271 274 279 277 278 275 274 278 283 284 281 279 277 277 277 278 277
272 273 271 271 271 271 268 271 277 277 274 275 280 277 276 280 281 286 287 286 285 282 280 279 277 275 275
264 272 277 275 277 282 283 274 279 275 265 269 282 285 287 283 286 281 280 283 285 284 282 278 276 273 269
273 268 266 266 266 262 262 262 270 271 268 275 280 283 278 286 283 279 277 276 276 276 277 275 274 271 267
273 269 268 272 270 269 268 271 270 272 275 274 276 273 274 276 276 283 271 269 269 271 271 271 273 271 272
277 273 275 283 289 284 280 275 271 267 266 269 264 267 263 266 273 272 281 272 267 267 267 266 269 267 271
278 284 288 283 276 273 274 275 273 272 268 265 260 259 262 258 262 270 267 273 267 262 263 264 261 260 260
282 279 278 277 274 274 274 275 272 274 274 269 262 256 256 259 262 263 268 264 264 264 263 264 260 258 256
272 270 270 275 280 279 276 272 272 271 271 270 269 268 265 258 249 261 260 260 260 260 255 259 263 256 253
275 276 274 273 279 275 273 273 272 271 268 268 266 264 268 268 265 251 261 261 259 256 251 248 257 258 254